Selinsgrove, PA

6:55 PM EDT on September 25, 2017 (GMT -0400)
Penn Valley

Weather History for KSEG - December, 2012

Change the Weather History Date:

Friday, December 14, 2012

  Actual Average (KIPT) Record (KIPT)
Temperature  
Mean Temperature 34 °F -  
Max Temperature 48 °F 38 °F 65 °F (1901)
Min Temperature 21 °F 24 °F -1 °F (2005)
Degree Days  
Heating Degree Days 30    
Moisture  
Dew Point 24 °F    
Average Humidity 79    
Maximum Humidity 92    
Minimum Humidity 44    
Precipitation  
Precipitation 0.01 in - - ()
Sea Level Pressure  
Sea Level Pressure 30.27 in    
Wind  
Wind Speed 1 mph (WSW)    
Max Wind Speed 5 mph    
Max Gust Speed -    
Visibility 8 miles    
Events      
Averages and records for this station are not official NWS values.
T = Trace of Precipitation, MM = Missing Value Source: NWS Daily Summary

Daily Weather History Graph

Daily Weather History Graph

Search for Another Location

Airport or City:

Trip Planner

Search our weather history database for the weather conditions in past years. The results will help you decide how hot, cold, wet, or windy it might be!

Date:

Astronomy

Dec. 14, 2012 Rise Set
Actual Time 7:24 AM EST 4:40 PM EST
Civil Twilight 6:53 AM EST 5:11 PM EST
Nautical Twilight 6:18 AM EST 5:45 PM EST
Astronomical Twilight 5:45 AM EST 6:19 PM EST
Moon 8:26 AM EST (12/14) 6:30 PM EST (12/14)
Length of Visible Light 10h 18m
Length of Day
9h 16m
Waxing Crescent, 3% of the Moon is Illuminated
Dec 14
Waxing Crescent
Dec 20
First Quarter
Dec 28
Full
Jan 4
Last Quarter
Jan 11
New

Hourly Weather History & Observations

Time (EST) Temp. Windchill Dew Point Humidity Pressure Visibility Wind Dir Wind Speed Gust Speed Precip Events Conditions
1:53 AM 21.9 °F - 19.0 °F 89% 30.32 in 6.0 mi Calm Calm - N/A   Clear
2:53 AM 21.0 °F - 19.0 °F 92% 30.32 in 6.0 mi Calm Calm - N/A   Clear
3:53 AM 21.0 °F - 19.0 °F 92% 30.31 in 6.0 mi Calm Calm - N/A   Clear
4:53 AM 21.0 °F - 18.0 °F 88% 30.30 in 5.0 mi Calm Calm - N/A   Clear
5:53 AM 21.0 °F - 18.0 °F 88% 30.30 in 6.0 mi Calm Calm - N/A   Clear
6:53 AM 21.0 °F - 18.0 °F 88% 30.31 in 6.0 mi Calm Calm - N/A   Clear
7:53 AM 21.0 °F - 19.0 °F 92% 30.31 in 4.0 mi Calm Calm - N/A   Clear
8:53 AM 26.1 °F - 23.0 °F 88% 30.30 in 4.0 mi Calm Calm - N/A   Clear
9:53 AM 30.9 °F - 26.1 °F 82% 30.30 in 6.0 mi Calm Calm - 0.01 in   Haze
10:53 AM 36.0 °F - 27.0 °F 70% 30.29 in 8.0 mi Calm Calm - N/A   Clear
11:53 AM 39.9 °F 37.8 °F 28.0 °F 63% 30.25 in 10.0 mi South 3.5 mph - N/A   Clear
12:53 PM 42.1 °F 39.2 °F 28.9 °F 60% 30.24 in 10.0 mi SSE 4.6 mph - N/A   Clear
1:53 PM 45.0 °F 43.5 °F 27.0 °F 49% 30.22 in 10.0 mi South 3.5 mph - N/A   Clear
2:53 PM 48.0 °F - 27.0 °F 44% 30.21 in 10.0 mi Calm Calm - N/A   Clear
3:53 PM 46.9 °F - 30.0 °F 52% 30.21 in 10.0 mi Calm Calm - N/A   Clear
4:53 PM 37.9 °F - 28.9 °F 70% 30.22 in 10.0 mi Calm Calm - N/A   Clear
5:53 PM 35.1 °F 32.2 °F 28.9 °F 78% 30.24 in 10.0 mi NNW 3.5 mph - N/A   Clear
6:53 PM 32.0 °F 28.7 °F 28.0 °F 85% 30.25 in 9.0 mi NNW 3.5 mph - N/A   Clear
7:53 PM 30.0 °F 25.2 °F 27.0 °F 88% 30.26 in 9.0 mi NW 4.6 mph - N/A   Clear
8:53 PM 28.9 °F - 27.0 °F 92% 30.26 in 8.0 mi Calm Calm - N/A   Clear
9:53 PM 28.0 °F - 26.1 °F 92% 30.27 in 7.0 mi Calm Calm - N/A   Clear
10:53 PM 27.0 °F - 25.0 °F 92% 30.27 in 6.0 mi Calm Calm - N/A   Clear
11:53 PM 27.0 °F - 25.0 °F 92% 30.28 in 6.0 mi Calm Calm - N/A   Clear